OMAL

Details ICAO OMAL (AAN)
Name AL AIN INTL
Region United Arab Emirates
Timezone Asia/Dubai (UTC+4.0)
Plans Departing 40
Arriving 27
Stats Elevation 869 ft / 265 m (AMSL)
Location 24.261690° 55.609131°
Runways 1
Magnetic Variation 1.866° E
Sunrise 2018-05-24 01:32:34 UTC / 2018-05-24 05:32:34 Local
Sunset 2018-05-24 14:59:04 UTC / 2018-05-24 18:59:04 Local
Advertisement - Login to hide

Runways

ID Width Length Bearing (true) Bearing (mag) Surface Threshold Offset Overrun Length
01 148 ft / 45 m 13,176 ft / 4,016 m 7.40° 5.53° Asphalt 0 ft / 0 m 1,312 ft / 400 m
19 148 ft / 45 m 13,176 ft / 4,016 m 187.40° 185.53° Asphalt 0 ft / 0 m 1,080 ft / 329 m

Map

Weather


0- 5 10 15 20 25 30 35+ Temperature / ° C

Clouds and Precipitation
Forecast for 2018-05-23 18:00 UTC. Updated 4 hours ago

Ground ~20,000 ft ~40,000 ft Winds

METAR

OMAL 232100Z 03010KT CAVOK 31/11 Q1008 NOSIG

TAF

Not found

Frequencies

Ground 129.15 MHz GND
Approach 119.85 MHz APP
Tower 119.85 MHz TWR
Warning: Do not use this data for real-world aviation or navigation. No guarantee of current accuracy is given.